Location: *
(50.2903°S, 172.5375°W)
Time: 12:04:02
(UTC+00:00)

STARLINK 1057 - Pass Details

Date: 17 November 2019
Orbit: 348 x 351 km, 53.0° (Epoch: 07 December)

Event Time Altitude Azimuth Distance (km) Brightness Sun altitude
Rises 13:38:35 0° 250° (WSW) 2,205 6.6 -13.8°
Reaches altitude 10° 13:40:41 10° 258° (WSW) 1,351 5.4 -13.6°
Maximum altitude 13:43:31 39° 328° (NNW) 561 3.2 -13.4°
Drops below altitude 10° 13:46:19 10° 39° (NE) 1,334 5.4 -13.1°
Sets 13:48:24 0° 46° (NE) 2,174 6.6 -12.9°
